Location: Llangefni
(53.2667°N, 4.3333°W)
Time: 07:26:23
(UTC+00:00)

Daily predictions for brighter satellites

Satellite Brightness Start Highest point End
(mag) Time Altitude Azimuth Time Altitude Azimuth Time Altitude Azimuth
SL-14 R/B 3.8 18:25:28 10° N 18:29:12 39° ENE 18:32:57 10° SE
Cosmos 2263 Rocket 2.4 18:24:40 10° NNW 18:30:18 57° NE 18:35:54 10° SE
Cosmos 1674 Rocket 4.0 18:29:30 10° N 18:33:39 40° ENE 18:37:49 10° SE
Cosmos 2360 4.3 18:29:36 10° SSW 18:35:13 59° ESE 18:40:51 10° NE
Cosmos 1805 3.9 18:32:10 10° SSE 18:35:42 34° E 18:39:15 10° NNE
SKYMED 2 3.5 18:32:41 10° NNE 18:37:04 76° ESE 18:41:25 10° S
YAOGAN 1 2.6 18:33:14 10° SSE 18:37:29 60° ENE 18:41:46 10° N
Cosmos 1726 3.2 18:36:30 10° SE 18:39:26 23° E 18:42:23 10° NE
COBE Rocket 3.8 18:34:57 10° SSE 18:39:48 69° ENE 18:44:32 10° N
OBJECT-B 2.0 18:39:05 10° ESE 18:40:50 16° ENE 18:42:34 10° NNE
DMSP B5D2-2 4.1 18:35:36 10° NNE 18:40:56 80° ESE 18:46:13 10° SSW
H-2A R/B 4.4 18:39:56 10° ENE 18:41:32 12° NE 18:43:07 10° NNE
Cosmos 2082 3.9 18:36:03 10° NNW 18:41:49 82° WSW 18:47:33 10° SSE
Cosmos 1674 3.4 18:38:40 10° NNW 18:42:23 58° W 18:46:03 10° S
Cosmos 676 Rocket 3.9 18:38:15 10° SSW 18:43:26 77° ESE 18:48:37 10° NNE
Cosmos 2084 Rocket 4.3 18:45:45 10° NW 18:49:10 31° NNE 18:52:17 12° E
Cosmos 1766 4.2 18:46:27 10° SE 18:49:43 26° E 18:53:00 10° NNE
Cosmos 1697 Rocket 2.7 18:47:26 10° SSW 18:53:02 78° ESE 18:58:42 10° NNE
Cosmos 1869 Rocket 4.4 18:49:08 10° SSW 18:53:33 58° WNW 18:58:00 10° N
Cosmos 2279 Rocket 4.1 18:48:49 10° NNW 18:55:07 86° W 19:01:23 10° S
Cosmos 2221 Rocket 3.6 18:51:41 10° N 18:56:14 82° E 19:00:46 10° SSE
Cosmos 1975 Rocket 4.4 18:54:56 10° NNE 18:58:24 21° ENE 19:00:50 14° ESE
ASTEX 1 3.5 18:54:14 10° N 18:59:14 89° W 19:04:14 10° S
Cosmos 2180 Rocket 4.5 18:54:17 10° N 19:00:33 83° E 19:06:52 10° SSE
Cosmos 1378 Rocket 3.5 18:58:32 10° N 19:02:58 72° ENE 19:07:19 10° SSE
IGS 5A 4.2 18:59:50 10° SE 19:03:34 34° ENE 19:07:20 10° N
Aureole 1 4.2 19:01:20 10° SSW 19:04:22 72° ESE 19:07:56 10° NNE
Resurs 01 Rocket 3.2 19:05:25 15° E 19:07:14 19° ENE 19:10:18 10° NNE
Cosmos 1733 3.0 19:05:59 10° S 19:09:44 84° E 19:13:30 10° NNE
ATLAS 2AS CENTAUR R/B 3.9 19:06:38 10° W 19:13:41 40° NNW 19:20:25 10° NE
Cosmos 2227 Rocket 4.5 19:09:50 10° NW 19:14:26 26° WSW 19:19:01 10° SSW
Cosmos 1470 3.9 19:15:56 21° ESE 19:16:36 21° E 19:19:35 10° NE
Cosmos 1733 Rocket 3.1 19:12:32 10° S 19:16:59 87° WNW 19:21:28 10° N
Meteor 2-14 Rocket 4.4 19:12:59 10° S 19:18:59 69° E 19:25:01 10° NNE
ISS -2.3 19:17:37 10° W 19:20:38 31° SSW 19:22:45 16° SSE
Cosmos 2084 3.1 19:18:39 10° SW 19:22:25 65° SE 19:25:48 13° NE
Cosmos 841 Rocket 4.1 19:18:22 10° NNW 19:23:28 57° WSW 19:28:29 10° S
CZ-4B R/B 4.0 19:19:18 10° S 19:24:32 53° W 19:29:56 10° NNW
COSMO-SKYMED 1 4.0 19:20:57 10° N 19:25:03 41° WNW 19:29:08 10° SW
Cosmos 2322 Rocket 4.0 19:27:51 13° ENE 19:27:51 13° ENE 19:28:54 10° ENE
Ariane Rocket 4.4 19:25:15 18° E 19:26:55 21° NE 19:30:43 10° N
CSL-04 Rocket 3.7 19:22:06 10° SSE 19:27:21 63° ENE 19:32:43 10° N
Okean-O 2.7 19:24:10 14° SE 19:27:50 54° ENE 19:32:11 10° N
Cosmos 1850 Rocket 3.9 19:23:14 10° SSW 19:28:27 75° ESE 19:33:44 10° NNE
Resurs 1-3 3.9 19:26:17 19° SE 19:29:07 45° ENE 19:33:19 10° N
CZ-4 R/B 2.0 19:25:01 10° S 19:29:09 62° WSW 19:33:19 10° NNW
Feng Yun 1-1 Rocket 4.4 19:24:27 10° S 19:29:58 74° WSW 19:35:24 10° NNW
Cosmos 1570 Rocket 4.0 19:25:26 10° NNW 19:30:43 70° ENE 19:34:49 17° SE
SJ-6B 2.6 19:30:23 17° SSE 19:33:11 66° ENE 19:36:57 10° N
Cosmos 1980 Rocket 2.1 19:27:39 10° SSW 19:33:17 81° ESE 19:38:56 10° NNE
Meteor 1-12 Rocket 4.3 19:30:03 10° S 19:35:57 63° E 19:41:55 10° NNE
Meteor 2-21 Rocket 4.4 19:30:15 10° S 19:36:14 66° E 19:42:14 10° NNE
DMSP B5D1-3 4.5 19:33:57 10° NNE 19:39:06 89° WNW 19:44:13 10° SSW
Cosmos 2369 3.7 19:35:36 10° SSW 19:41:20 86° WNW 19:47:05 10° NNE
USA 186 1.8 19:40:04 20° SSE 19:42:13 90° ENE 19:45:36 10° NNW
deb Chang Zheng 4 3.8 19:41:19 32° ESE 19:42:41 43° ENE 19:46:38 10° N
Cosmos 489 Rocket 4.5 19:40:17 10° S 19:46:32 63° ESE 19:52:47 10° NNE
Meteor 1-24 Rocket 3.5 19:42:12 10° N 19:47:31 70° ENE 19:51:25 19° SSE
Cosmos 2278 3.6 19:43:03 10° SSW 19:48:40 64° ESE 19:54:17 10° NE
Meteor 2-10 4.5 19:43:16 10° SSW 19:48:53 70° WNW 19:54:23 10° N
NOSS 7 (E) 4.5 19:47:20 10° NW 19:50:27 72° SW 19:51:36 39° SSE
Cosmos 1437 Rocket 2.6 19:46:48 10° S 19:50:29 57° E 19:54:11 10° NNE
SL-4 R/B 2.9 19:47:16 10° W 19:51:35 47° SSW 19:53:27 30° SSE
SL-16 R/B 2.6 19:46:57 10° S 19:52:04 36° ESE 19:57:14 10° NE
USA 215 3.4 19:47:18 15° ENE 19:52:50 72° NNW 19:59:21 10° W
Meteor 2-16 Rocket 4.3 19:47:11 10° S 19:53:18 74° E 19:59:27 10° NNE
Cosmos 2208 Rocket 4.0 19:48:43 10° NNW 19:54:07 83° ENE 19:57:22 25° SSE
MINOTAUR IV R/B 4.5 19:50:30 10° SSW 19:55:00 70° ESE 19:59:32 10° NNE
Cosmos 1844 Rocket 2.8 19:51:16 10° NNW 19:56:54 59° NE 19:59:17 34° ESE
Cosmos 1741 Rocket 4.2 19:52:12 10° SSW 19:57:29 73° WNW 20:02:46 10° NNE
Cosmos 2285 Rocket 4.3 19:53:22 10° NNW 19:59:40 67° WSW 20:05:46 11° S
Okean O Rocket 3.5 19:56:20 10° SSW 20:00:09 30° W 20:04:02 10° NNW
USA 81 3.9 19:55:08 10° N 20:00:26 71° E 20:03:45 23° SSE
Cosmos 2278 Rocket 3.9 19:56:42 10° NNW 20:00:51 20° NNE 20:03:03 16° ENE
Landsat 5 3.5 19:56:34 10° NNE 20:01:06 79° ESE 20:05:35 10° SSW
Cosmos 1908 Rocket 3.5 19:56:58 10° SSW 20:01:18 85° W 20:05:40 10° N
Meteor 1-22 Rocket 4.1 19:56:35 10° S 20:01:53 62° E 20:07:26 10° NNE
Cosmos 2026 Rocket 3.9 19:58:17 10° S 20:04:14 62° E 20:10:13 10° NNE
Cosmos 1553 Rocket 4.1 20:00:43 10° N 20:06:57 56° ENE 20:09:43 33° SE
Cosmos 1300 Rocket 4.5 20:08:30 32° NE 20:08:30 32° NE 20:11:21 10° NNE
Cosmos 1782 Rocket 3.4 20:06:54 30° S 20:08:55 66° E 20:13:15 10° NNE
Cosmos 1943 Rocket 4.4 20:07:35 10° NNW 20:10:26 14° NNE 20:13:18 10° NE
OBJECT-B 2.5 20:09:47 19° SW 20:10:45 24° W 20:12:58 10° NW
MOS 1 4.3 20:08:42 36° SE 20:10:56 62° ENE 20:16:33 10° NNW
Nadezhda 4 Rocket 4.3 20:04:53 10° SSW 20:11:11 69° WNW 20:17:31 10° N
Cosmos 2292 Rocket 3.7 20:06:07 10° SSW 20:11:36 83° W 20:15:43 10° N
Cosmos 2263 Rocket 3.8 20:08:58 10° NW 20:13:59 33° WSW 20:19:00 10° SSW
Cosmos 1726 3.8 20:10:51 10° SW 20:14:11 34° WNW 20:17:34 10° N
H-2A R/B 2.2 20:15:56 69° SE 20:16:19 79° ENE 20:20:13 10° NNW
USA 281 3.9 20:16:21 31° E 20:18:29 39° NE 20:24:29 10° NNW
Cosmos 1844 3.6 20:12:58 10° NNW 20:18:34 70° NE 20:20:06 47° ESE
Meteor 2-5 Rocket 4.0 20:13:39 10° NNW 20:19:10 64° W 20:23:46 15° S
MetOp-A 3.1 20:21:56 76° S 20:22:14 87° WSW 20:26:11 10° NNW
Meteor 1-15 Rocket 4.4 20:16:52 10° SSW 20:22:26 74° WNW 20:28:02 10° N
Cosmos 773 Rocket 4.4 20:18:53 10° NNW 20:23:58 44° NE 20:24:31 43° ENE
Cosmos 1025 Rocket 3.1 20:22:47 10° NNW 20:27:05 72° W 20:28:10 48° SSW
Cosmos 2084 Rocket 3.3 20:25:01 10° NW 20:28:44 68° WSW 20:28:44 68° WSW
MetOp-B 4.2 20:31:47 55° E 20:32:23 58° ENE 20:37:40 10° N
SPOT 1/Viking Rocket 3.4 20:32:06 54° SSE 20:33:20 85° ENE 20:38:31 10° NNW
Cosmos 1536 Rocket 4.3 20:30:14 10° N 20:33:26 39° NE 20:33:26 39° NE
Spot 2 3.9 20:34:50 80° SSW 20:34:59 83° WSW 20:39:18 10° NNW
Cosmos 1975 Rocket 3.6 20:32:14 10° NNW 20:36:37 56° W 20:37:59 38° SSW
SPOT 3 Rocket 3.9 20:37:48 47° ENE 20:37:48 47° ENE 20:42:36 10° N
SeaSat 1 4.4 20:38:34 15° NE 20:39:35 16° NNE 20:42:33 10° N
Cosmos 2360 Rocket 4.2 20:46:44 14° NE 20:46:44 14° NE 20:47:32 10° NE
Resurs 01 Rocket 1.6 20:42:59 73° SW 20:43:14 76° WSW 20:47:41 10° NNW
Cosmos 1092 Rocket 4.4 20:42:04 10° SSW 20:48:20 65° WNW 20:54:35 10° N
Cosmos 968 Rocket 3.7 20:46:48 10° SW 20:52:02 70° WNW 20:57:17 10° NNE
Cosmos 1470 4.0 20:51:05 31° WSW 20:52:19 40° WNW 20:55:59 10° N
CARTOSAT-1 4.1 20:54:09 53° N 20:54:09 53° N 20:57:32 10° NNW
Cosmos 2237 4.4 20:52:04 10° SSW 20:58:53 57° NE 21:03:28 10° NE
Cosmos 158 Rocket 4.4 20:53:00 10° NNW 20:57:03 48° NNE 20:57:03 48° NNE
IRS-1A Rocket 4.4 20:57:16 53° S 20:58:36 72° WSW 21:04:24 10° NNW
Cosmos 1655 Rocket 4.4 21:03:22 46° ENE 21:03:22 46° ENE 21:08:20 10° NNE
Ariane Rocket 3.0 21:05:27 80° W 21:05:27 80° W 21:10:29 10° NNW
Terra 3.0 21:07:09 32° NNE 21:07:09 32° NNE 21:10:10 10° N
ATLAS 2AS CENTAUR R/B 3.7 20:59:24 10° NW 21:06:19 40° NNE 21:09:00 30° ENE
ERS-1 Rocket 3.7 21:07:50 44° NNE 21:07:50 44° NNE 21:11:38 10° N
Cosmos 2322 Rocket 2.4 21:09:30 60° NE 21:09:30 60° NE 21:14:09 10° NNE
Gbstr 26 Del rocket 4.4 21:07:57 10° WSW 21:15:53 75° SSE 21:17:10 64° ESE
S3M 3.9 21:09:42 10° NNW 21:16:01 83° W 21:16:36 74° SSW
NOSS 3-4 (A) 3.7 21:11:01 10° NW 21:17:40 73° NE 21:18:30 66° E
NOSS 3-4 (C) 3.7 21:11:07 10° NW 21:17:46 73° NE 21:18:36 66° E
Cosmos 1980 Rocket 4.1 21:13:05 10° W 21:17:55 28° NW 21:22:46 10° NNE
SPOT 5 3.6 21:20:43 48° N 21:20:43 48° N 21:24:11 10° NNW
Cosmos 2266 Rocket 4.1 21:21:36 65° NE 21:21:36 65° NE 21:27:15 10° NNE
H-2A R/B 4.5 21:24:46 10° NNE 21:25:28 15° NNE 21:25:28 15° NNE
Spot 2 Rocket 4.2 21:30:30 50° N 21:30:30 50° N 21:34:15 10° NNW
USA 215 3.4 21:34:39 59° NE 21:35:37 67° N 21:42:06 10° WNW
SL-16 R/B 2.9 21:30:30 10° SW 21:36:02 52° NW 21:41:37 10° NNE
Cosmos 1844 Rocket 4.0 21:35:34 10° NW 21:40:31 32° WSW 21:40:57 31° WSW
Cosmos 2278 Rocket 2.9 21:40:32 10° NNW 21:44:53 47° N 21:44:53 47° N
Cosmos 1943 Rocket 3.6 21:51:09 10° NNW 21:54:57 29° NNE 21:54:57 29° NNE
Cosmos 2369 Rocket 4.1 21:55:31 10° NNW 21:59:43 20° NNE 22:00:00 20° NNE
ADEOS Rocket 4.2 22:04:13 30° NNE 22:04:13 30° NNE 22:07:36 10° N
USA 281 3.4 22:03:14 63° W 22:03:14 63° W 22:09:17 10° NNW
Cosmos 2333 Rocket 4.2 22:08:01 20° NNE 22:08:01 20° NNE 22:09:41 10° NNE
Cosmos 2219 Rocket 4.4 22:10:23 15° NE 22:10:23 15° NE 22:11:23 10° NE
SeaSat 1 4.2 22:18:19 28° N 22:18:19 28° N 22:20:53 10° NNW
Resurs 01 Rocket 4.5 22:20:32 11° W 22:20:32 11° W 22:21:54 10° WNW
Cosmos 2360 Rocket 3.7 22:28:27 31° N 22:28:27 31° N 22:31:42 10° NNE
Terra 4.2 22:46:03 20° NW 22:46:03 20° NW 22:47:51 10° NNW
Cosmos 2322 Rocket 4.0 22:51:08 23° WNW 22:53:09 28° NW 22:58:02 10° NNE
ATLAS 2AS CENTAUR R/B 3.4 22:51:01 10° NW 22:56:23 51° NNW 22:56:23 51° NNW
Cosmos 2278 Rocket 4.4 23:25:01 10° NW 23:26:42 18° WNW 23:26:42 18° WNW
Cosmos 1943 Rocket 4.3 23:34:46 10° NW 23:36:27 20° NW 23:36:27 20° NW
Cosmos 2369 Rocket 4.1 23:39:18 10° NNW 23:41:46 26° NNW 23:41:46 26° NNW
Cosmos 2333 Rocket 4.1 23:50:00 25° NNW 23:50:00 25° NNW 23:53:48 10° NNE
Cosmos 2219 Rocket 4.2 23:52:05 25° N 23:52:05 25° N 23:55:12 10° NNE
